Location: ??
(34.7707°N, 135.6540°E)
Time: 13:15:33
(UTC+00:00)

USA 238 - Visible Passes

Search period start: 06 August 2020 00:00
Search period end: 16 August 2020 00:00
Orbit: 1009 x 1203 km, 63.4° (Epoch: 05 August)

Date Brightness Start Highest point End Pass type
(mag) Time Alt. Az. Time Alt. Az. Time Alt. Az.
06 Aug 5.2 11:18:10 15° E 11:18:10 15° E 11:20:07 10° ENE visible
06 Aug 3.7 13:05:28 65° WSW 13:06:16 73° WNW 13:13:04 10° NNE visible
06 Aug 6.1 14:54:48 10° WNW 14:58:28 15° NW 15:02:12 10° N visible
07 Aug 3.4 12:19:52 51° S 12:21:32 70° ESE 12:28:15 10° NE visible
07 Aug 5.6 14:08:01 10° W 14:13:04 22° NW 14:18:17 10° N visible
08 Aug 3.9 11:30:53 10° S 11:36:56 41° ESE 11:43:09 10° NE visible
08 Aug 5.0 13:21:57 10° WSW 13:27:52 34° NW 13:34:00 10° NNE visible
08 Aug 6.6 19:08:21 10° N 19:11:40 13° NE 19:15:02 10° ENE visible
09 Aug 4.5 10:47:26 10° SSE 10:52:28 24° ESE 10:57:34 10° ENE visible
09 Aug 4.2 12:36:27 10° SW 12:42:51 54° NW 12:49:31 10° NNE visible
09 Aug 6.4 14:33:10 10° NW 14:35:26 12° NNW 14:37:46 10° NNW visible
10 Aug 3.5 11:51:27 10° SSW 11:58:00 87° WNW 12:04:49 10° NNE visible
10 Aug 6.0 13:45:38 10° W 13:49:55 18° NW 13:54:21 10° N visible
10 Aug 6.3 19:28:11 10° N 19:34:00 25° NE 19:39:57 10° E visible
11 Aug 3.6 11:06:58 10° SSW 11:13:19 57° ESE 11:19:54 10° NE visible
11 Aug 5.5 12:59:10 10° WSW 13:04:36 27° NW 13:10:14 10° N visible
11 Aug 6.5 18:44:08 10° N 18:48:38 17° NE 18:53:12 10° ENE visible
12 Aug 4.2 10:23:03 10° S 10:28:46 33° ESE 10:34:38 10° NE visible
12 Aug 4.8 12:13:20 10° WSW 12:19:29 41° NW 12:25:53 10° NNE visible
12 Aug 6.8 18:00:52 10° NNE 18:03:04 11° NNE 18:05:16 10° NE visible
13 Aug 4.0 11:28:03 10° SW 11:34:33 66° WNW 11:41:19 10° NNE visible
13 Aug 6.4 13:23:36 10° WNW 13:26:51 14° NW 13:30:12 10° N visible
13 Aug 5.8 19:04:23 10° NNW 19:10:47 32° NE 19:17:20 10° ESE visible
14 Aug 3.5 10:43:14 10° SSW 10:49:46 77° ESE 10:56:32 10° NE visible
14 Aug 6.0 12:36:36 10° W 12:41:26 21° NW 12:46:24 10° N visible
14 Aug 6.3 18:20:10 10° N 18:25:32 21° NE 18:31:00 10° E visible
15 Aug 5.4 11:50:25 10° WSW 11:56:11 31° NW 12:02:10 10° NNE visible
15 Aug 6.6 17:36:19 10° N 17:40:05 14° NE 17:43:54 10° ENE visible
15 Aug 4.5 19:25:13 10° NNW 19:32:28 63° ENE 19:39:55 10° SE visible
